Wind_Speed
11 12 10 8 4 2 2 1 0 3 5 7 9 11 12 14 15 17 18 20 19 19 19 17 15 14 13 13 12 11 11 12 14 14 14 14 14 14 13 12 11 10 10 10 9 8 6 5 3
10 12 12 10 6 6 5 3 2 4 6 7 9 10 10 11 12 14 15 17 18 17 17 16 16 15 14 13 12 11 9 9 10 11 11 11 11 12 12 12 10 9 8 8 8 7 6 5 4
10 11 13 12 10 9 8 6 3 5 7 8 8 10 9 9 9 11 12 14 15 15 14 14 14 13 12 11 11 10 9 9 8 8 8 9 10 10 11 11 10 8 7 7 7 7 6 6 6
9 10 12 13 13 11 10 7 5 5 8 9 9 10 9 9 8 8 9 10 12 12 11 11 11 11 10 9 9 8 8 8 8 8 8 8 8 9 9 8 8 7 6 5 5 5 6 7 7
11 10 11 12 12 12 10 7 4 5 9 10 12 11 11 9 8 6 6 6 7 7 6 6 7 8 8 8 9 9 9 8 7 7 6 5 5 5 6 6 7 7 6 5 5 4 5 6 7
13 12 11 12 12 11 10 7 4 5 9 12 14 13 12 10 8 6 5 5 6 5 4 3 3 4 5 6 7 8 8 7 7 6 5 3 3 3 4 5 7 7 7 6 5 4 5 6 7
16 15 14 13 12 11 9 6 4 5 9 13 14 14 13 12 10 8 6 5 5 4 2 1 2 3 4 5 6 7 8 8 8 8 8 6 5 5 5 6 6 7 7 7 6 5 6 7 7
19 18 17 16 14 12 8 7 7 7 7 9 10 10 12 12 11 9 6 5 4 3 2 1 1 2 3 4 5 6 8 9 10 11 11 10 9 8 7 7 7 7 7 8 8 7 8 8 8
22 21 21 20 18 16 12 10 9 8 7 7 8 9 10 12 12 10 8 6 6 5 4 4 4 4 4 5 6 7 8 9 11 12 13 13 13 11 10 9 8 7 7 8 9 8 9 10 10
24 23 25 24 21 18 16 14 12 11 10 10 10 11 12 13 13 12 11 10 9 8 7 8 9 10 10 10 10 11 11 11 11 12 14 14 14 13 13 11 10 8 8 8 10 10 10 10 11
28 27 27 25 24 22 20 18 17 15 14 13 13 12 13 13 14 14 13 13 14 13 13 14 16 17 16 15 14 13 14 14 13 14 14 14 14 13 13 12 11 10 10 10 12 12 12 12 11
31 30 29 28 26 25 24 22 21 20 19 17 15 13 13 14 15 16 16 17 17 17 17 18 19 19 18 17 16 15 16 16 15 15 15 15 15 15 15 13 12 11 12 12 13 13 14 13 12
34 33 32 31 29 28 27 26 25 24 22 20 18 16 15 14 16 17 18 19 20 20 20 20 20 19 18 18 19 18 18 17 17 16 16 16 17 17 16 14 13 14 14 14 13 14 15 15 14
37 36 35 34 33 31 30 30 28 28 26 24 22 20 20 19 19 19 20 21 22 23 23 23 22 21 21 21 22 22 22 21 19 19 18 18 19 19 18 18 16 16 16 15 15 16 17 17 16
35 36 36 37 36 35 34 33 32 32 31 29 28 26 25 25 24 24 24 25 25 25 25 25 25 24 24 25 26 26 26 25 24 23 22 21 21 21 20 20 19 18 17 17 17 18 19 18 18
32 34 35 39 38 38 36 36 37 37 35 34 33 32 31 30 29 29 29 29 29 28 28 28 28 27 28 29 30 30 31 31 29 28 26 25 25 24 22 22 22 20 20 20 20 20 20 20 19
30 31 34 39 40 40 39 38 41 40 39 38 37 36 35 33 32 32 32 32 32 32 31 31 31 31 32 33 34 34 35 36 36 34 31 30 29 27 25 23 23 22 22 22 22 23 23 22 21
28 29 32 36 39 40 41 42 43 41 41 41 40 39 38 36 34 33 33 34 34 34 34 34 34 35 36 37 38 38 39 41 42 40 37 35 32 30 27 24 24 23 23 24 24 25 25 24 24
29 29 30 34 36 36 40 42 42 41 42 43 43 42 41 39 37 36 37 38 38 37 36 36 37 38 39 40 41 42 43 44 44 44 42 39 35 32 30 28 26 25 25 26 26 26 26 25 25
28 29 30 33 32 33 36 38 39 39 41 42 42 42 41 40 38 38 38 39 39 38 36 36 38 40 42 43 44 45 45 43 43 42 42 42 39 35 32 31 29 28 28 28 28 27 26 25 24
28 29 30 31 31 31 33 34 35 36 37 38 39 39 39 38 37 36 36 36 37 37 38 39 40 42 44 45 46 48 48 48 45 44 42 41 41 39 36 35 33 32 32 31 30 29 26 24 23
29 31 31 31 31 31 34 33 34 35 35 36 36 36 36 36 36 36 35 36 36 38 40 41 43 44 46 48 49 50 51 51 50 47 43 40 40 40 39 37 36 35 34 32 30 27 27 26 24
34 34 34 34 34 34 35 35 32 38 36 37 36 35 35 35 36 36 37 38 39 41 42 44 46 47 49 51 52 53 54 55 56 54 52 48 44 43 42 39 36 35 33 31 28 27 28 28 27
37 37 39 40 40 41 38 39 37 39 41 39 38 37 37 37 37 38 39 41 42 43 45 47 48 50 52 53 55 56 57 58 58 58 56 54 51 48 44 42 39 36 34 32 30 29 29 30 30
37 39 40 42 44 43 41 44 42 47 44 42 42 42 42 41 41 41 42 42 43 45 47 48 50 51 52 54 56 57 58 58 56 54 52 51 49 48 47 44 40 37 35 34 33 32 32 32 32
30 34 38 41 39 36 44 46 46 47 46 46 46 47 47 46 46 45 44 44 44 45 46 48 49 49 50 52 53 53 53 52 49 46 43 41 40 40 39 39 39 38 35 35 33 33 33 33 34
27 30 33 38 40 40 41 43 43 41 43 44 45 46 46 46 45 44 43 43 43 43 44 45 46 46 46 46 45 45 44 42 39 37 34 32 31 31 33 34 35 35 33 32 32 33 33 34 35
25 26 27 31 35 38 38 39 39 37 38 39 40 41 42 42 40 39 39 39 39 39 40 41 41 41 40 39 38 37 36 33 30 29 28 27 27 28 29 31 31 30 30 30 31 33 33 34 33
28 27 28 30 32 32 33 34 35 32 33 34 35 36 38 39 39 38 37 36 35 36 36 36 36 35 34 33 33 32 31 29 27 26 26 26 26 26 27 27 28 29 30 30 31 31 31 31 30
34 33 33 33 32 32 32 33 31 30 30 30 30 32 35 36 37 37 37 35 35 35 35 34 33 32 32 31 31 30 28 27 26 26 26 26 26 26 27 27 28 29 30 30 30 31 31 31 30
Wind_Direction
220 226 229 225 224 219 217 318 145 183 142 116 111 109 103 101 99 93 86 80 76 77 82 87 90 92 91 90 89 90 90 88 88 86 82 77 73 73 74 74 69 63 59 56 56 56 57 60 55
224 227 229 232 231 241 251 265 188 186 177 146 131 125 114 108 104 94 88 80 73 70 75 80 84 87 89 89 88 87 87 87 87 87 85 80 74 70 70 69 68 64 57 50 46 40 33 29 24
227 227 231 236 238 241 251 257 239 196 184 165 150 142 132 121 110 99 91 83 75 69 68 71 74 76 77 78 76 72 73 77 80 83 83 80 76 73 70 66 64 59 53 46 39 33 20 6 357
228 228 231 236 243 248 251 256 248 207 188 176 168 163 155 144 125 103 91 88 81 71 61 60 63 62 58 55 51 47 47 53 58 63 68 69 70 69 66 61 55 48 41 33 25 22 15 2 348
229 230 232 236 245 247 249 249 230 198 190 184 179 176 172 162 143 118 101 94 86 70 53 47 51 50 45 38 30 25 23 24 30 38 48 55 59 55 47 37 33 29 23 12 3 356 356 351 343
232 232 233 235 242 243 244 238 217 194 190 185 182 181 178 173 159 144 131 115 95 79 61 43 36 26 20 15 12 8 4 358 355 354 353 351 349 355 0 4 3 1 360 357 348 335 334 337 335
235 234 234 235 240 241 239 228 205 182 177 177 180 185 182 178 169 163 157 145 125 114 103 54 5 345 342 345 350 352 350 342 331 322 314 310 306 304 313 327 336 337 338 339 335 323 319 323 329
235 235 236 238 239 238 231 218 204 189 186 188 187 196 197 192 185 184 184 178 168 170 189 206 281 318 327 331 335 341 342 336 327 317 307 298 292 288 291 303 311 315 322 329 332 321 313 316 319
234 233 234 235 235 236 231 221 211 207 210 215 221 221 220 209 200 197 201 203 209 219 234 251 263 276 289 301 310 318 331 333 329 324 314 302 291 286 285 291 296 300 305 312 317 317 310 309 311
231 232 233 236 237 237 234 227 221 223 231 241 245 241 230 220 214 211 213 219 232 246 265 283 289 289 286 283 291 302 315 323 324 322 316 308 298 290 286 285 285 288 294 297 298 300 303 302 302
228 230 235 236 236 235 234 232 229 230 235 243 247 245 239 231 228 231 238 244 251 261 276 288 293 292 287 280 283 297 310 317 318 318 313 307 301 295 289 284 283 288 296 299 297 294 294 294 294
228 230 233 235 236 235 235 234 232 232 237 242 246 250 252 245 243 248 255 259 261 266 275 282 288 286 281 278 283 293 303 311 313 313 310 303 297 292 290 286 286 292 299 302 300 298 296 292 290
230 231 233 235 235 235 235 235 235 235 237 240 243 249 252 252 252 256 260 262 264 268 272 275 279 282 280 278 282 289 294 300 302 303 304 298 293 288 287 285 286 290 295 301 304 302 300 295 291
232 233 235 235 235 234 234 236 238 239 240 240 242 245 247 251 255 255 256 259 262 266 270 270 271 275 276 275 277 283 287 289 291 292 294 290 286 283 282 281 283 287 289 291 298 300 300 297 293
233 233 236 236 236 235 235 236 237 239 241 242 242 243 245 247 249 251 254 257 259 262 265 265 265 266 269 271 274 278 281 282 283 283 284 281 278 276 275 274 277 281 284 287 293 297 299 296 292
234 233 235 237 237 237 236 236 237 238 239 241 242 244 244 244 246 250 255 257 258 259 260 260 261 261 264 267 270 274 276 277 277 277 277 275 272 269 268 268 272 277 282 286 291 294 296 293 290
233 234 234 239 239 239 237 235 237 239 240 242 243 246 247 246 248 251 254 255 255 256 257 258 259 260 262 266 270 273 275 276 275 273 271 270 268 263 263 265 269 274 280 285 288 291 292 291 290
232 233 235 240 240 240 240 239 240 240 242 245 246 248 250 251 252 253 255 254 254 254 255 256 256 257 261 266 270 274 275 275 274 273 269 267 263 259 259 263 267 273 280 285 287 288 289 289 290
230 230 234 239 241 241 243 244 244 243 244 246 248 250 252 253 255 255 255 256 256 257 256 255 255 256 259 264 268 271 273 273 274 272 268 265 260 255 256 258 264 272 279 285 287 286 285 285 288
232 232 235 240 241 242 245 247 248 248 248 249 249 250 252 253 254 254 254 255 256 256 255 254 255 256 259 262 265 269 272 273 273 272 273 266 258 254 253 257 263 271 278 282 285 285 281 280 283
233 233 236 240 242 243 246 248 249 249 249 249 249 249 250 252 251 251 251 252 253 254 254 255 256 258 260 262 264 266 268 268 270 272 276 274 265 259 256 258 263 269 275 277 281 280 275 274 278
238 237 238 240 242 243 245 246 251 248 250 250 249 249 248 249 249 249 249 250 250 251 253 254 256 258 260 262 263 265 266 268 271 274 276 279 274 267 263 260 264 270 273 273 275 271 268 270 272
242 244 244 244 244 243 245 246 246 252 250 251 251 251 249 249 250 252 253 253 252 251 252 253 254 256 258 260 261 263 265 267 270 273 275 277 279 275 267 262 265 269 268 268 267 263 264 266 269
250 251 251 250 250 249 248 249 247 252 251 252 252 252 253 253 254 255 256 256 255 254 253 253 254 255 256 257 259 262 265 268 271 274 276 277 277 274 268 262 265 263 263 264 259 258 261 264 267
252 253 254 254 253 255 253 250 251 251 254 254 254 254 254 254 255 256 256 256 254 254 253 254 255 256 257 258 260 263 267 270 272 276 277 277 276 271 267 261 259 259 261 258 254 256 261 264 267
256 253 252 252 253 252 254 256 254 256 257 256 256 256 256 256 257 258 258 257 255 255 254 255 256 258 260 262 264 267 269 271 272 274 276 275 272 268 263 257 253 255 257 255 254 258 262 265 269
258 254 252 251 251 251 255 259 257 255 255 255 254 254 255 255 256 257 257 257 256 255 255 256 258 260 262 265 267 269 271 271 270 270 270 267 262 258 254 249 249 252 254 255 257 262 265 268 271
255 253 250 250 251 252 254 257 259 253 252 252 251 251 251 252 253 254 254 254 254 255 255 257 259 261 264 266 268 269 268 267 264 262 259 257 256 253 250 250 249 252 256 260 264 267 269 272 273
256 254 254 254 253 255 255 255 255 254 250 250 249 248 248 249 251 253 254 255 255 256 257 258 260 261 262 264 266 267 265 262 258 256 254 252 251 250 250 250 252 256 261 264 267 269 271 272 273
255 257 258 259 258 258 256 255 254 253 251 249 248 247 247 248 249 251 253 254 255 255 256 259 259 259 260 263 263 263 261 258 256 255 253 253 252 253 254 255 257 259 262 264 266 268 270 270 271
Height
5917 5918 5920 5923 5926 5929 5929 5931 5931 5932 5932 5931 5931 5932 5932 5933 5934 5935 5933 5931 5931 5930 5930 5931 5931 5931 5931 5931 5931 5931 5930 5929 5927 5926 5926 5926 5925 5925 5924 5922 5921 5920 5919 5918 5916 5915 5913 5912 5911
5916 5917 5919 5922 5925 5928 5929 5930 5931 5932 5932 5932 5932 5933 5933 5934 5934 5934 5933 5933 5933 5933 5932 5933 5933 5933 5933 5933 5932 5932 5931 5930 5929 5928 5927 5926 5926 5926 5925 5924 5922 5921 5920 5919 5917 5916 5915 5914 5913
5915 5916 5919 5921 5923 5926 5928 5929 5930 5931 5931 5931 5932 5933 5934 5935 5935 5935 5935 5935 5935 5935 5934 5934 5934 5934 5934 5934 5933 5933 5932 5931 5930 5929 5927 5927 5926 5926 5925 5925 5923 5922 5920 5919 5918 5917 5916 5915 5914
5915 5916 5919 5921 5922 5924 5926 5928 5929 5929 5930 5930 5932 5933 5934 5935 5936 5936 5936 5936 5936 5936 5936 5936 5935 5935 5935 5934 5934 5933 5933 5932 5931 5930 5929 5928 5927 5926 5925 5925 5924 5922 5921 5920 5918 5917 5916 5915 5914
5914 5916 5918 5919 5921 5923 5924 5926 5927 5928 5929 5930 5931 5932 5933 5935 5935 5936 5937 5936 5936 5937 5937 5936 5936 5936 5936 5935 5934 5934 5933 5933 5932 5931 5930 5928 5927 5926 5925 5924 5923 5922 5921 5920 5919 5918 5917 5915 5914
5913 5915 5917 5919 5920 5922 5923 5924 5925 5926 5927 5929 5930 5931 5932 5933 5934 5935 5936 5936 5936 5936 5936 5936 5936 5936 5935 5935 5934 5934 5933 5933 5932 5931 5930 5929 5927 5926 5925 5924 5923 5922 5920 5919 5918 5918 5917 5916 5915
5912 5913 5915 5917 5918 5920 5922 5923 5924 5925 5926 5928 5929 5930 5931 5932 5932 5933 5934 5934 5934 5935 5936 5935 5935 5935 5934 5934 5933 5933 5932 5932 5931 5930 5929 5928 5927 5925 5924 5923 5922 5921 5920 5919 5918 5917 5916 5915 5914
5908 5911 5912 5914 5916 5918 5921 5922 5923 5925 5926 5927 5928 5929 5930 5930 5931 5931 5932 5932 5933 5934 5934 5934 5934 5933 5933 5932 5932 5931 5931 5930 5930 5929 5928 5927 5925 5924 5923 5922 5921 5919 5918 5917 5916 5916 5915 5915 5913
5905 5909 5909 5911 5914 5916 5918 5921 5922 5924 5925 5926 5927 5928 5928 5928 5928 5929 5930 5931 5931 5932 5932 5932 5932 5931 5931 5931 5930 5929 5929 5928 5927 5927 5926 5925 5923 5922 5921 5920 5919 5918 5917 5916 5915 5914 5914 5913 5912
5901 5904 5906 5907 5910 5913 5916 5918 5921 5922 5923 5924 5925 5925 5926 5926 5927 5927 5928 5929 5929 5930 5930 5930 5929 5929 5928 5928 5928 5927 5926 5926 5925 5924 5923 5922 5921 5920 5919 5918 5917 5916 5915 5914 5913 5912 5911 5910 5910
5897 5900 5901 5904 5906 5910 5912 5915 5918 5920 5921 5922 5923 5924 5924 5924 5925 5926 5926 5927 5927 5927 5927 5926 5926 5925 5925 5925 5924 5924 5923 5923 5922 5921 5921 5920 5919 5917 5916 5915 5914 5913 5912 5911 5911 5910 5909 5908 5907
5893 5895 5897 5900 5903 5906 5909 5911 5914 5917 5918 5919 5921 5922 5922 5922 5923 5924 5924 5924 5924 5923 5923 5923 5922 5922 5921 5921 5921 5920 5920 5920 5919 5918 5918 5917 5916 5914 5913 5913 5912 5911 5910 5909 5908 5908 5907 5906 5904
5888 5890 5892 5896 5899 5901 5905 5907 5910 5912 5914 5916 5918 5919 5920 5920 5920 5921 5921 5920 5920 5920 5920 5920 5920 5919 5918 5918 5917 5917 5917 5916 5916 5915 5915 5914 5913 5911 5910 5909 5909 5908 5908 5907 5906 5905 5904 5903 5902
5882 5884 5887 5890 5893 5896 5900 5902 5906 5907 5910 5912 5914 5916 5917 5917 5917 5917 5916 5916 5916 5916 5916 5917 5917 5916 5915 5914 5914 5913 5912 5912 5911 5911 5911 5910 5909 5908 5907 5906 5906 5905 5905 5904 5903 5902 5901 5900 5899
5876 5879 5881 5884 5887 5890 5895 5898 5901 5902 5904 5907 5909 5911 5912 5912 5912 5912 5912 5912 5912 5912 5913 5913 5913 5912 5912 5911 5910 5909 5908 5907 5907 5907 5906 5906 5905 5904 5903 5903 5902 5901 5901 5900 5899 5898 5897 5896 5895
5870 5873 5875 5877 5880 5884 5890 5894 5894 5895 5897 5900 5902 5904 5905 5907 5907 5908 5908 5908 5908 5908 5908 5908 5908 5908 5907 5906 5905 5904 5903 5903 5902 5901 5901 5900 5900 5899 5898 5898 5898 5897 5896 5896 5895 5894 5893 5892 5891
5864 5867 5869 5870 5873 5876 5882 5886 5886 5888 5891 5893 5895 5897 5899 5901 5902 5903 5903 5903 5903 5903 5903 5904 5904 5903 5902 5901 5900 5899 5898 5897 5895 5895 5895 5894 5894 5893 5892 5893 5893 5892 5891 5891 5890 5889 5889 5888 5887
5859 5861 5863 5865 5866 5870 5873 5876 5878 5881 5884 5885 5888 5890 5892 5894 5896 5897 5897 5897 5896 5897 5897 5898 5898 5898 5897 5895 5895 5894 5892 5890 5887 5887 5887 5886 5887 5887 5886 5887 5886 5887 5886 5885 5885 5884 5884 5883 5882
5852 5855 5857 5858 5860 5864 5865 5868 5870 5873 5876 5877 5880 5882 5884 5886 5888 5889 5889 5889 5889 5890 5890 5891 5891 5891 5890 5889 5888 5886 5884 5881 5879 5877 5876 5877 5878 5879 5880 5880 5880 5880 5880 5879 5879 5879 5878 5878 5877
5848 5850 5852 5852 5855 5857 5858 5860 5862 5865 5867 5869 5871 5873 5875 5877 5879 5880 5881 5881 5882 5883 5883 5883 5883 5883 5883 5882 5881 5879 5876 5873 5870 5867 5867 5868 5870 5871 5872 5873 5872 5872 5873 5872 5872 5872 5872 5872 5871
5842 5844 5845 5847 5849 5851 5852 5854 5855 5857 5858 5860 5862 5864 5866 5868 5870 5871 5872 5873 5874 5875 5875 5875 5875 5875 5874 5874 5873 5871 5869 5866 5862 5861 5861 5861 5862 5863 5864 5865 5865 5865 5865 5865 5865 5866 5865 5866 5866
5835 5837 5838 5840 5842 5844 5845 5847 5848 5849 5850 5851 5853 5856 5858 5859 5861 5862 5863 5864 5865 5866 5866 5867 5867 5866 5866 5865 5864 5862 5860 5858 5856 5856 5856 5857 5857 5857 5857 5857 5858 5858 5858 5858 5858 5858 5859 5860 5860
5829 5830 5832 5833 5834 5836 5837 5839 5843 5839 5841 5842 5845 5847 5849 5851 5852 5853 5854 5855 5856 5856 5857 5857 5857 5857 5856 5855 5854 5853 5851 5850 5848 5848 5849 5850 5850 5850 5849 5849 5850 5850 5850 5851 5851 5852 5852 5853 5853
5822 5824 5825 5825 5826 5827 5830 5831 5834 5832 5832 5833 5836 5838 5840 5842 5843 5844 5845 5846 5846 5847 5847 5848 5848 5847 5846 5845 5844 5843 5842 5841 5840 5839 5839 5840 5841 5841 5841 5841 5842 5842 5843 5843 5844 5844 5845 5845 5846
5815 5817 5817 5817 5817 5819 5820 5820 5824 5820 5823 5825 5826 5828 5829 5831 5832 5833 5834 5835 5836 5836 5837 5837 5837 5837 5836 5836 5835 5834 5833 5833 5832 5831 5830 5830 5829 5829 5829 5831 5833 5835 5835 5835 5836 5836 5837 5837 5838
5806 5807 5808 5808 5810 5811 5807 5809 5813 5812 5814 5814 5815 5816 5817 5819 5821 5822 5823 5824 5824 5825 5826 5826 5826 5827 5827 5826 5826 5825 5824 5823 5823 5822 5821 5819 5818 5817 5818 5820 5823 5826 5827 5827 5828 5828 5829 5829 5829
5798 5797 5798 5798 5797 5798 5798 5798 5799 5803 5802 5803 5803 5804 5805 5807 5809 5810 5811 5812 5813 5814 5815 5816 5817 5817 5817 5816 5816 5815 5814 5813 5812 5812 5811 5810 5809 5809 5810 5812 5815 5817 5818 5819 5820 5820 5821 5821 5821
5791 5790 5789 5788 5787 5788 5789 5789 5789 5790 5791 5791 5792 5793 5794 5796 5797 5799 5800 5802 5803 5804 5805 5806 5807 5808 5808 5808 5807 5806 5805 5804 5803 5803 5803 5803 5802 5802 5803 5805 5807 5809 5810 5811 5812 5812 5813 5813 5813
5783 5783 5782 5780 5780 5780 5780 5782 5779 5780 5781 5781 5782 5783 5785 5786 5788 5790 5791 5792 5794 5795 5796 5797 5798 5798 5799 5799 5799 5798 5797 5796 5796 5796 5796 5796 5796 5796 5797 5798 5799 5801 5802 5803 5804 5804 5805 5805 5805
5774 5773 5773 5772 5771 5770 5770 5773 5770 5770 5771 5772 5773 5774 5776 5777 5779 5780 5782 5783 5785 5785 5786 5787 5788 5790 5791 5791 5791 5790 5790 5790 5790 5790 5790 5790 5790 5790 5791 5791 5793 5794 5795 5796 5797 5797 5797 5797 5797